[[{"header":{"parameterUnit":"m.s-1","parameterCategory":2,"la1":30.2991,"la2":30.254,"lo1":-89.0895,"lo2":-89.0444,"dy":0.0017,"dx":0.0017,"nx":28,"ny":28,"refTime":"2025-03-09T09:00:00:Z","depth":"0","parameterNumber":2,"parameterNumberName":"U-component_of_CURRENTS"},"data":[0,0,0,0,0,0,0,0,0,0,0,0,0,0,0,0,0,0,0,0,0,0,0,0,0,0,0,0,0,0,0,0,0,0,0,0,0,0,0,0,0,0,0,0,0,0,0,0,0,0,0,0,0,0,0,0,0,0,0.1977,0.1977,0,0.1952,0.1952,0.1952,0.1933,0.1933,0.1933,0.1933,0.1976,0.1977,0.1978,0,0,0,0,0,0,0,0,0,0,0,0,0,0.1975,0.1976,0.1977,0.1977,0.1977,0.1952,0.1952,0.1952,0.1933,0.1933,0.1933,0.1933,0.1975,0.1977,0.1979,0,0,0,0,0,0,0,0,0,0,0,0,0,0.1966,0.1976,0.1977,0.1964,0.1963,0.1953,0.1952,0.1952,0.1933,0.1933,0.1933,0.1933,0.1975,0.1977,0.1979,0.1997,0,0,0.1985,0.1986,0,0,0,0,0,0,0,0,0.1967,0.1966,0.1967,0.1965,0.1964,0.1945,0.1967,0.197,0.1934,0.1945,0.1933,0.1932,0.1972,0.1974,0.197,0.1999,0.2001,0.1985,0.1986,0.1987,0.1988,0,0,0,0,0,0,0,0.1967,0.1967,0.1968,0.1966,0.1964,0.1948,0.1947,0.1967,0.1962,0.1944,0.1942,0.1939,0.1972,0.1968,0.1971,0.2001,0.1985,0.1987,0.1988,0.1989,0.2084,0.2085,0,0,0,0,0,0,0.1972,0.1968,0.1969,0.1967,0.1964,0.1948,0.1947,0.1952,0.196,0.1961,0.194,0.1939,0.1964,0.1968,0.1972,0.2038,0.1987,0.1989,0.199,0.2083,0.2084,0.2086,0,0,0,0,0,0,0.1972,0.1973,0.197,0.1966,0.1964,0.1949,0.1954,0.1951,0.1949,0.1956,0.1958,0.194,0.1964,0.1969,0.1997,0.2038,0.199,0.1992,0.2081,0.2083,0.2085,0.2142,0,0,0,0,0,0,0.1973,0.1973,0.1978,0.1967,0.1965,0.1972,0.1954,0.1951,0.1947,0.1946,0.1957,0.196,0.1965,0.1994,0.1999,0.204,0.1993,0.2079,0.2082,0.2084,0.2139,0.2146,0.2152,0,0,0,0,0,0.1973,0.1977,0.1979,0.1979,0.1973,0.1973,0.1971,0.1958,0.1948,0.1953,0.196,0.196,0.2014,0.1996,0.2002,0.2045,0.2078,0.2081,0.2084,0.2136,0.2144,0.2152,0,0,0,0,0,0,0.1969,0.1975,0.1977,0.1981,0.1983,0.1969,0.1968,0.1961,0.1969,0.197,0.1973,0.1977,0.202,0.202,0.2001,0.2079,0.2049,0.2053,0.2086,0.2094,0.2101,0.2115,0.1995,0,0,0,0,0,0.1975,0.1985,0.1985,0.1989,0.1991,0.1982,0.1979,0.1976,0.1978,0.198,0.199,0.2007,0.2037,0.2053,0.2074,0.2113,0.2125,0.2145,0.2152,0.2158,0.2173,0.2207,0.2218,0.2096,0.2096,0.2096,0,0,0.1971,0.1978,0.1981,0.1991,0.1988,0.2006,0.1979,0.1982,0.2008,0.1987,0.2023,0.2031,0.2051,0.2097,0.2117,0.2103,0.2202,0.2161,0.2166,0.2179,0.2211,0.2223,0.2234,0.2098,0.2097,0.2097,0,0,0.1974,0.198,0.1992,0.2003,0.2011,0.2018,0.2022,0.2022,0.2033,0.2065,0.2064,0.2092,0.2127,0.2154,0.2172,0.2229,0.2235,0.2237,0.2289,0.2321,0.2332,0.2341,0.2386,0.2399,0.2243,0.2243,0.2243,0,0.1968,0.1991,0.1993,0.2013,0.2029,0.2029,0.2053,0.207,0.2083,0.2108,0.2087,0.2153,0.2161,0.2233,0.2251,0.2247,0.2266,0.2256,0.2331,0.234,0.2348,0.2392,0.2405,0.2246,0.2246,0.2245,0.2245,0,0.1985,0.2008,0.2015,0.2054,0.2074,0.2091,0.2121,0.2151,0.2164,0.2183,0.2244,0.225,0.2292,0.23,0.2294,0.2369,0.2364,0.2333,0.231,0.2364,0.2407,0.242,0.225,0.2249,0.2248,0.2248,0,0,0.1959,0.2016,0.2019,0.2052,0.2099,0.2117,0.2181,0.2237,0.2286,0.2306,0.2366,0.2407,0.2405,0.2425,0.2422,0.2447,0.252,0.2419,0.2419,0.2465,0.2609,0.2685,0.2706,0.2499,0.2501,0.2503,0.2619,0,0.1972,0.2019,0.2052,0.2113,0.2142,0.2187,0.2249,0.2307,0.2351,0.2411,0.2436,0.2486,0.2457,0.2476,0.2503,0.2512,0.2555,0.2493,0.2549,0.2551,0.2613,0.2724,0.2629,0.2732,0.2632,0.2634,0.2635,0,0.198,0.2016,0.207,0.2158,0.2175,0.2219,0.2326,0.2382,0.2476,0.2508,0.2566,0.258,0.2642,0.2589,0.2663,0.2624,0.2633,0.2632,0.2636,0.2698,0.2653,0.2658,0.2759,0.2725,0.2655,0.2653,0.2652,0,0.1961,0.2034,0.2081,0.2107,0.2202,0.2248,0.2308,0.2409,0.2465,0.2571,0.262,0.2685,0.2725,0.2743,0.2768,0.2714,0.2844,0.2764,0.285,0.2855,0.2784,0.278,0.2859,0.2828,0.2827,0.2827,0.2827,0,0.1966,0.2003,0.2076,0.2101,0.2169,0.2246,0.2328,0.2405,0.2509,0.2589,0.2663,0.2739,0.2763,0.2839,0.2827,0.2918,0.2903,0.2904,0.2907,0.2804,0.2801,0.2775,0.2739,0.2831,0.283,0.2829,0.2829,0,0.1936,0.1983,0.2037,0.2129,0.2157,0.2207,0.2313,0.2382,0.2495,0.2604,0.2641,0.2789,0.2916,0.2967,0.3023,0.3019,0.301,0.3099,0.2997,0.2989,0.3024,0.2993,0.2955,0.2866,0.3206,0.3208,0.3211,0,0.1925,0.1949,0.2029,0.2057,0.2096,0.217,0.2228,0.2349,0.2434,0.2637,0.2701,0.2874,0.2989,0.3158,0.3192,0.3255,0.3133,0.3214,0.3099,0.3071,0.3037,0.287,0.2781,0.3017,0.3018,0.3018,0.3019,0,0.19,0.1924,0.1963,0.2014,0.207,0.2128,0.2231,0.2279,0.2449,0.2549,0.2721,0.2827,0.3065,0.3129,0.3278,0.3286,0.309,0.3231,0.3203,0.2935,0.275,0.2649,0.2906,0.3023,0.3023,0.3023,0.3022,0.3022,0.1866,0.1879,0.1924,0.197,0.2027,0.2082,0.2096,0.2219,0.2314,0.246,0.2636,0.2775,0.3006,0.321,0.321,0.3244,0.3156,0.3164,0.3142,0.2985,0.2865,0.3178,0.3303,0.3304,0.3305,0.3306,0.3306,0,0.1815,0.1839,0.188,0.192,0.1945,0.2006,0.2094,0.21,0.2164,0.2354,0.2474,0.2721,0.2871,0.304,0.32,0.3146,0.2919,0.3104,0.2804,0.2727,0.302,0.2983,0.3043,0.3043,0.3043,0.3043,0.3043,0.3043,0.1789,0.1797,0.182,0.1827,0.1855,0.1851,0.1871,0.1903,0.2009,0.2143,0.2291,0.2455,0.2856,0.3151,0.3185,0.3096,0.2833,0.2757,0.2731,0.2926,0.2926,0.2926,0.2884,0.2922,0.2922,0.228,0.2276,0.2273]},{"header":{"parameterUnit":"m.s-1","parameterCategory":2,"la1":30.2991,"la2":30.254,"lo1":-89.0895,"lo2":-89.0444,"dy":0.0017,"dx":0.0017,"nx":28,"ny":28,"refTime":"2025-03-09T09:00:00:Z","depth":"0","parameterNumber":3,"parameterNumberName":"V-component_of_CURRENTS"},"data":[0,0,0,0,0,0,0,0,0,0,0,0,0,0,0,0,0,0,0,0,0,0,0,0,0,0,0,0,0,0,0,0,0,0,0,0,0,0,0,0,0,0,0,0,0,0,0,0,0,0,0,0,0,0,0,0,0,0,-0.0189,-0.0189,0,-0.0221,-0.0222,-0.0222,-0.0253,-0.0254,-0.0254,-0.0254,-0.0404,-0.0407,-0.0411,0,0,0,0,0,0,0,0,0,0,0,0,0,-0.0192,-0.0192,-0.0189,-0.0189,-0.0189,-0.0221,-0.0222,-0.0222,-0.0253,-0.0254,-0.0254,-0.0254,-0.0402,-0.0407,-0.0411,0,0,0,0,0,0,0,0,0,0,0,0,0,-0.0206,-0.0192,-0.0189,-0.0207,-0.0209,-0.0221,-0.0222,-0.0223,-0.0253,-0.0254,-0.0254,-0.0254,-0.0401,-0.0406,-0.0412,-0.0442,0,0,-0.043,-0.0432,0,0,0,0,0,0,0,0,-0.0206,-0.0207,-0.0204,-0.0206,-0.0208,-0.0231,-0.0277,-0.0301,-0.0253,-0.0239,-0.0254,-0.0254,-0.0355,-0.0364,-0.0372,-0.0449,-0.0456,-0.043,-0.0434,-0.0436,-0.0438,0,0,0,0,0,0,0,-0.0205,-0.0206,-0.0204,-0.0204,-0.0206,-0.0226,-0.0228,-0.0282,-0.0299,-0.024,-0.0242,-0.0241,-0.0357,-0.0366,-0.0376,-0.0458,-0.043,-0.0435,-0.0438,-0.0441,-0.0571,-0.0571,0,0,0,0,0,0,-0.0193,-0.0204,-0.0203,-0.0205,-0.0204,-0.0225,-0.0228,-0.0225,-0.0296,-0.0306,-0.0241,-0.0243,-0.0356,-0.0369,-0.0381,-0.044,-0.0436,-0.0441,-0.0445,-0.0571,-0.0571,-0.0571,0,0,0,0,0,0,-0.0193,-0.0193,-0.0202,-0.0204,-0.0206,-0.0224,-0.0222,-0.0226,-0.0234,-0.0295,-0.0307,-0.0244,-0.0357,-0.0373,-0.0416,-0.0446,-0.0444,-0.0449,-0.0571,-0.0571,-0.0571,-0.0547,0,0,0,0,0,0,-0.0193,-0.0192,-0.0189,-0.0203,-0.0205,-0.0205,-0.0221,-0.0226,-0.0232,-0.0234,-0.0302,-0.0316,-0.0358,-0.0406,-0.0421,-0.0454,-0.0454,-0.0571,-0.0571,-0.0571,-0.0548,-0.0546,-0.0545,0,0,0,0,0,-0.0193,-0.0178,-0.0188,-0.0188,-0.0199,-0.0204,-0.0208,-0.0224,-0.0231,-0.0232,-0.027,-0.0314,-0.0418,-0.0411,-0.0428,-0.0463,-0.0571,-0.0571,-0.0571,-0.0548,-0.0547,-0.0545,0,0,0,0,0,0,-0.017,-0.018,-0.0192,-0.0179,-0.0191,-0.0208,-0.0206,-0.0219,-0.0248,-0.0252,-0.0311,-0.0327,-0.0376,-0.0414,-0.0404,-0.0497,-0.0504,-0.0507,-0.0481,-0.048,-0.0478,-0.0496,-0.0458,0,0,0,0,0,-0.0164,-0.0161,-0.0175,-0.0166,-0.0169,-0.0189,-0.0193,-0.0205,-0.0229,-0.0241,-0.0287,-0.0339,-0.039,-0.0427,-0.047,-0.0524,-0.056,-0.0557,-0.0555,-0.0554,-0.0578,-0.0647,-0.0655,-0.0571,-0.0571,-0.0571,0,0,-0.0152,-0.0157,-0.0155,-0.0162,-0.0172,-0.0179,-0.0192,-0.0193,-0.0212,-0.0256,-0.0294,-0.0332,-0.0398,-0.0451,-0.0478,-0.049,-0.0587,-0.0554,-0.0553,-0.0578,-0.0648,-0.0657,-0.0664,-0.0571,-0.0571,-0.0571,0,0,-0.0124,-0.0131,-0.0121,-0.0132,-0.0144,-0.0162,-0.016,-0.0181,-0.0203,-0.0236,-0.0275,-0.0329,-0.0397,-0.046,-0.0499,-0.0518,-0.0568,-0.0528,-0.0554,-0.062,-0.0628,-0.0636,-0.0653,-0.0663,-0.0539,-0.0539,-0.0539,0,-0.0108,-0.0102,-0.0119,-0.0116,-0.0124,-0.0153,-0.0151,-0.0181,-0.0215,-0.0246,-0.0243,-0.0359,-0.0411,-0.0504,-0.0511,-0.0522,-0.0545,-0.0556,-0.062,-0.0629,-0.0637,-0.0654,-0.0665,-0.0538,-0.0538,-0.0538,-0.0538,0,-0.008,-0.008,-0.0072,-0.0088,-0.0101,-0.01,-0.0141,-0.0168,-0.0197,-0.0236,-0.0312,-0.0375,-0.045,-0.0475,-0.0506,-0.0598,-0.0586,-0.06,-0.0627,-0.0645,-0.0659,-0.0671,-0.0536,-0.0536,-0.0537,-0.0537,0,0,-0.003,-0.0048,-0.0047,-0.0051,-0.0086,-0.0088,-0.0134,-0.0184,-0.0215,-0.0276,-0.0325,-0.0432,-0.0467,-0.0515,-0.0563,-0.0637,-0.0701,-0.0647,-0.0651,-0.0667,-0.0813,-0.0728,-0.0733,-0.0726,-0.0729,-0.0731,-0.0785,0,-0.0003,0.0012,-0.0015,-0.0016,-0.0013,-0.0067,-0.0101,-0.0158,-0.0214,-0.0268,-0.0372,-0.0425,-0.0483,-0.0507,-0.0598,-0.0667,-0.0739,-0.0684,-0.0792,-0.0795,-0.0722,-0.0747,-0.0686,-0.0724,-0.0797,-0.0799,-0.08,0,0.0031,0.0035,0.0046,0.0021,0.0017,0.0005,-0.0058,-0.0091,-0.0196,-0.0239,-0.0339,-0.0401,-0.0524,-0.055,-0.0726,-0.0683,-0.0758,-0.0817,-0.0821,-0.077,-0.0734,-0.0726,-0.0743,-0.0914,-0.0819,-0.0817,-0.0816,0,0.0081,0.0076,0.0087,0.0079,0.0045,0.0029,0.0005,-0.0082,-0.0104,-0.0216,-0.0227,-0.0397,-0.0431,-0.0591,-0.0708,-0.0724,-0.0868,-0.09,-0.0901,-0.0894,-0.0881,-0.0867,-0.1086,-0.1041,-0.1041,-0.1041,-0.1041,0,0.0119,0.0128,0.0116,0.0123,0.0135,0.0088,0.0079,0.0023,-0.004,-0.004,-0.0195,-0.0203,-0.0444,-0.0544,-0.0693,-0.0808,-0.0858,-0.0918,-0.0918,-0.0862,-0.0846,-0.1024,-0.1112,-0.1043,-0.1042,-0.1042,-0.1042,0,0.0168,0.0157,0.0176,0.0161,0.0162,0.0174,0.0162,0.0159,0.009,0.009,0.007,-0.0059,-0.0169,-0.0387,-0.0603,-0.0735,-0.0954,-0.0915,-0.0802,-0.0788,-0.0951,-0.1037,-0.1237,-0.1298,-0.0948,-0.0947,-0.0945,0,0.0192,0.0209,0.0225,0.0253,0.0251,0.0265,0.0284,0.0229,0.0251,0.0211,0.0246,0.0133,0.0111,-0.0164,-0.0429,-0.0673,-0.0867,-0.0791,-0.0837,-0.0965,-0.1064,-0.1135,-0.1179,-0.0799,-0.0796,-0.0794,-0.0793,0,0.0242,0.0251,0.0274,0.0338,0.0373,0.0412,0.045,0.0495,0.0464,0.0492,0.0551,0.0532,0.0293,0.0097,-0.0244,-0.0438,-0.088,-0.0755,-0.0955,-0.1024,-0.1057,-0.1109,-0.0728,-0.0775,-0.0777,-0.0778,-0.0779,-0.078,0.0288,0.0323,0.0369,0.0432,0.0486,0.0578,0.0643,0.0712,0.08,0.0883,0.084,0.088,0.0535,0.0104,-0.0181,-0.0679,-0.0724,-0.0856,-0.0962,-0.1033,-0.107,-0.0612,-0.0614,-0.0614,-0.0615,-0.0616,-0.0616,0,0.0354,0.0399,0.0463,0.0551,0.0645,0.0648,0.0772,0.0864,0.1031,0.1123,0.1195,0.1093,0.0685,0.02,-0.0442,-0.0822,-0.1005,-0.107,-0.1217,-0.1264,-0.0919,-0.0891,-0.0871,-0.0871,-0.0871,-0.0871,-0.087,-0.087,0.0391,0.0475,0.0514,0.0685,0.0756,0.0897,0.0989,0.1134,0.1247,0.1434,0.1498,0.1505,0.1169,-0.0063,-0.0898,-0.1122,-0.1441,-0.1483,-0.1656,-0.1477,-0.1468,-0.1459,-0.1458,-0.1558,-0.1559,-0.1949,-0.1953,-0.1956]}],[{"header":{"parameterUnit":"m.s-1","parameterCategory":2,"la1":30.2991,"la2":30.254,"lo1":-89.0895,"lo2":-89.0444,"dy":0.0017,"dx":0.0017,"nx":28,"ny":28,"refTime":"2025-03-09T09:00:00:Z","depth":"2","parameterNumber":2,"parameterNumberName":"U-component_of_CURRENTS"},"data":[0,0,0,0,0,0,0,0,0,0,0,0,0,0,0,0,0,0,0,0,0,0,0,0,0,0,0,0,0,0,0,0,0,0,0,0,0,0,0,0,0,0,0,0,0,0,0,0,0,0,0,0,0,0,0,0,0,0,0.1614,0.1614,0,0.1628,0.1628,0.1628,0.1629,0.1629,0.1629,0.1629,0.1647,0.1647,0.1648,0,0,0,0,0,0,0,0,0,0,0,0,0,0.1583,0.1583,0.1614,0.1614,0.1614,0.1628,0.1628,0.1628,0.1629,0.1629,0.1629,0.1629,0.1647,0.1647,0.1648,0,0,0,0,0,0,0,0,0,0,0,0,0,0.1595,0.1583,0.1614,0.1617,0.1618,0.1628,0.1628,0.1628,0.1629,0.1629,0.1629,0.1629,0.1646,0.1647,0.1648,0.1654,0,0,0.165,0.165,0,0,0,0,0,0,0,0,0.1595,0.1596,0.1617,0.1617,0.1618,0.1628,0.1624,0.1637,0.1629,0.1624,0.1629,0.1629,0.1642,0.1643,0.1644,0.1654,0.1655,0.165,0.1651,0.1651,0.1651,0,0,0,0,0,0,0,0.1594,0.1596,0.1618,0.1617,0.1618,0.1617,0.1619,0.1626,0.1632,0.1624,0.1625,0.1628,0.1642,0.1643,0.1644,0.1655,0.165,0.1651,0.1651,0.1652,0.1725,0.1727,0,0,0,0,0,0,0.1595,0.1595,0.1618,0.1619,0.1608,0.1618,0.162,0.1624,0.1632,0.1633,0.1629,0.1628,0.1642,0.1643,0.1645,0.1708,0.1651,0.1652,0.1652,0.1724,0.1726,0.1727,0,0,0,0,0,0,0.1594,0.1597,0.1617,0.1608,0.1611,0.1619,0.1623,0.1624,0.1633,0.1635,0.1636,0.1637,0.1642,0.1644,0.1667,0.1707,0.1652,0.1653,0.1722,0.1724,0.1727,0.1799,0,0,0,0,0,0,0.1593,0.1597,0.1607,0.1608,0.1612,0.1634,0.1624,0.1625,0.1636,0.1636,0.1643,0.1644,0.1642,0.1666,0.1667,0.1707,0.1653,0.172,0.1723,0.1726,0.1794,0.1803,0.1811,0,0,0,0,0,0.1592,0.1603,0.1607,0.161,0.1623,0.1635,0.1637,0.1641,0.1636,0.1647,0.1654,0.1644,0.1685,0.1667,0.1669,0.1709,0.1719,0.1722,0.1726,0.1791,0.1801,0.181,0,0,0,0,0,0,0.1591,0.1605,0.1609,0.1623,0.1634,0.1636,0.1646,0.1647,0.1659,0.1662,0.1658,0.1661,0.1699,0.169,0.1671,0.1739,0.1703,0.1707,0.1752,0.1762,0.177,0.1782,0.1654,0,0,0,0,0,0.1597,0.1613,0.1622,0.1635,0.164,0.1644,0.1651,0.1656,0.1664,0.1669,0.1677,0.169,0.1714,0.1725,0.1739,0.177,0.1775,0.1799,0.1807,0.1814,0.1826,0.1858,0.1871,0.1739,0.1738,0.1738,0,0,0.1598,0.161,0.1618,0.1637,0.1643,0.1664,0.1648,0.1664,0.1692,0.167,0.171,0.1717,0.1728,0.177,0.1787,0.1768,0.1858,0.1818,0.1824,0.1832,0.1863,0.1876,0.1888,0.1741,0.174,0.174,0,0,0.1609,0.162,0.1637,0.1654,0.1674,0.1682,0.1689,0.1701,0.1718,0.1754,0.1753,0.1783,0.1809,0.1832,0.1845,0.1904,0.1899,0.1911,0.1964,0.1996,0.2007,0.2017,0.2055,0.2067,0.1915,0.1915,0.1916,0,0.1612,0.1635,0.1644,0.1669,0.1689,0.1693,0.1719,0.174,0.1763,0.1792,0.1778,0.1842,0.1844,0.1909,0.1932,0.1925,0.1941,0.1926,0.2007,0.2017,0.2026,0.2062,0.2074,0.1919,0.1919,0.1918,0.1918,0,0.1634,0.1661,0.1672,0.171,0.1735,0.1756,0.1787,0.1813,0.1832,0.1865,0.193,0.1936,0.1978,0.1986,0.1978,0.2051,0.2043,0.2013,0.1982,0.2044,0.2077,0.209,0.1925,0.1924,0.1922,0.1921,0,0,0.1619,0.1676,0.1682,0.1709,0.176,0.1777,0.1834,0.1889,0.1942,0.1972,0.2043,0.2081,0.2093,0.2108,0.2105,0.213,0.2206,0.2104,0.2104,0.2142,0.2291,0.2315,0.233,0.2191,0.2193,0.2195,0.2294,0,0.1634,0.1686,0.1715,0.177,0.18,0.1834,0.1895,0.1954,0.2007,0.2079,0.2108,0.2177,0.214,0.2171,0.2192,0.2204,0.224,0.2183,0.2225,0.2227,0.2241,0.2346,0.2163,0.2238,0.2306,0.2308,0.2309,0,0.1645,0.1684,0.1738,0.1813,0.1829,0.1868,0.1961,0.2018,0.2125,0.2179,0.2247,0.2278,0.2341,0.2288,0.2349,0.2316,0.2317,0.2315,0.2318,0.2324,0.2274,0.2186,0.2258,0.2329,0.2328,0.2326,0.2325,0,0.1629,0.1698,0.1741,0.1767,0.1854,0.1888,0.1938,0.2049,0.211,0.225,0.2319,0.2392,0.2439,0.2449,0.247,0.2411,0.2537,0.2448,0.2474,0.2475,0.2321,0.2305,0.2499,0.2498,0.2498,0.2498,0.2498,0,0.1633,0.1667,0.1735,0.176,0.1823,0.1892,0.1977,0.2052,0.217,0.2268,0.2367,0.2448,0.248,0.2553,0.2533,0.2579,0.2596,0.252,0.2517,0.2344,0.233,0.2395,0.2382,0.2502,0.2501,0.25,0.2499,0,0.1607,0.1652,0.1697,0.1783,0.1815,0.1856,0.1964,0.2031,0.2171,0.2296,0.2347,0.25,0.2607,0.2659,0.2707,0.2676,0.2704,0.2714,0.2528,0.2502,0.2592,0.2581,0.2722,0.2724,0.2725,0.2727,0.2728,0,0.1597,0.1621,0.1694,0.1719,0.1753,0.1827,0.1887,0.2014,0.209,0.232,0.2373,0.2544,0.263,0.276,0.277,0.28,0.2794,0.2652,0.2499,0.264,0.2622,0.2608,0.2595,0.2317,0.2314,0.2313,0.2311,0,0.157,0.159,0.1624,0.1686,0.1731,0.1789,0.1881,0.1922,0.2097,0.2206,0.2354,0.244,0.2623,0.2594,0.271,0.2682,0.263,0.2615,0.2829,0.2304,0.227,0.2248,0.2246,0.2294,0.2296,0.2297,0.2298,0.2299,0.154,0.1545,0.1592,0.1641,0.1693,0.1738,0.1755,0.1857,0.1942,0.2093,0.2229,0.2323,0.242,0.2476,0.2447,0.2453,0.2584,0.2456,0.2456,0.2459,0.241,0.2383,0.2419,0.2421,0.2423,0.2425,0.2427,0,0.1492,0.1512,0.155,0.1589,0.161,0.1677,0.1745,0.1749,0.1799,0.1966,0.2066,0.1994,0.2041,0.2136,0.2117,0.2154,0.2058,0.2072,0.1914,0.1937,0.1955,0.1872,0.1743,0.174,0.1737,0.1734,0,0,0.1466,0.1473,0.1489,0.1498,0.1533,0.1537,0.155,0.1573,0.1656,0.1692,0.175,0.1958,0.2081,0.1865,0.1879,0.1801,0.1832,0.174,0.2304,0.2141,0.2154,0.2216,0.2122,0,0,0,0,0]},{"header":{"parameterUnit":"m.s-1","parameterCategory":2,"la1":30.2991,"la2":30.254,"lo1":-89.0895,"lo2":-89.0444,"dy":0.0017,"dx":0.0017,"nx":28,"ny":28,"refTime":"2025-03-09T09:00:00:Z","depth":"2","parameterNumber":3,"parameterNumberName":"V-component_of_CURRENTS"},"data":[0,0,0,0,0,0,0,0,0,0,0,0,0,0,0,0,0,0,0,0,0,0,0,0,0,0,0,0,0,0,0,0,0,0,0,0,0,0,0,0,0,0,0,0,0,0,0,0,0,0,0,0,0,0,0,0,0,0,-0.0081,-0.0082,0,-0.0142,-0.0143,-0.0143,-0.0183,-0.0183,-0.0183,-0.0183,-0.0267,-0.0269,-0.0272,0,0,0,0,0,0,0,0,0,0,0,0,0,-0.0039,-0.004,-0.0081,-0.0082,-0.0082,-0.0142,-0.0143,-0.0143,-0.0183,-0.0183,-0.0183,-0.0183,-0.0267,-0.0269,-0.0272,0,0,0,0,0,0,0,0,0,0,0,0,0,-0.0075,-0.004,-0.0081,-0.0109,-0.0112,-0.0141,-0.0143,-0.0144,-0.0183,-0.0183,-0.0183,-0.0183,-0.0266,-0.0269,-0.0272,-0.0286,0,0,-0.0282,-0.0283,0,0,0,0,0,0,0,0,-0.0073,-0.0077,-0.0104,-0.0107,-0.011,-0.0154,-0.0159,-0.0192,-0.0183,-0.0156,-0.0183,-0.0184,-0.0231,-0.0237,-0.0249,-0.029,-0.0293,-0.0282,-0.0284,-0.0285,-0.0286,0,0,0,0,0,0,0,-0.007,-0.0074,-0.0106,-0.0105,-0.0108,-0.0132,-0.0137,-0.0165,-0.0192,-0.0159,-0.0162,-0.0167,-0.0233,-0.0245,-0.0251,-0.0294,-0.0282,-0.0284,-0.0286,-0.0288,-0.0369,-0.037,0,0,0,0,0,0,-0.0059,-0.0072,-0.0104,-0.0108,-0.0091,-0.0132,-0.0138,-0.0141,-0.0192,-0.0199,-0.0167,-0.0169,-0.024,-0.0247,-0.0254,-0.0289,-0.0285,-0.0288,-0.029,-0.0369,-0.0369,-0.037,0,0,0,0,0,0,-0.0058,-0.0061,-0.0101,-0.0091,-0.0097,-0.0132,-0.0135,-0.0142,-0.0155,-0.0198,-0.0206,-0.0174,-0.0241,-0.025,-0.0278,-0.0292,-0.0289,-0.0292,-0.0369,-0.0369,-0.037,-0.0349,0,0,0,0,0,0,-0.0056,-0.006,-0.0061,-0.009,-0.0098,-0.0114,-0.0135,-0.0142,-0.0158,-0.0161,-0.0206,-0.0214,-0.0241,-0.0273,-0.0281,-0.0296,-0.0295,-0.0368,-0.0369,-0.0369,-0.0349,-0.0349,-0.0348,0,0,0,0,0,-0.0055,-0.0048,-0.0061,-0.0065,-0.0096,-0.0114,-0.012,-0.0147,-0.0158,-0.016,-0.0191,-0.0213,-0.0283,-0.0275,-0.0285,-0.0301,-0.0368,-0.0369,-0.0369,-0.035,-0.0349,-0.0348,0,0,0,0,0,0,-0.0027,-0.0053,-0.0067,-0.0068,-0.0089,-0.012,-0.0125,-0.0143,-0.017,-0.0174,-0.0214,-0.0224,-0.0255,-0.0278,-0.0269,-0.0326,-0.033,-0.0333,-0.0312,-0.0312,-0.0311,-0.0316,-0.0297,0,0,0,0,0,-0.0022,-0.0027,-0.0054,-0.0056,-0.0063,-0.0094,-0.0106,-0.0123,-0.0149,-0.0161,-0.0194,-0.023,-0.0265,-0.0286,-0.0315,-0.0345,-0.0378,-0.0363,-0.0362,-0.0362,-0.0372,-0.0455,-0.0464,-0.0372,-0.0372,-0.0372,0,0,-0.0012,-0.0027,-0.0029,-0.0051,-0.0068,-0.0075,-0.0101,-0.0113,-0.0125,-0.0166,-0.0191,-0.0226,-0.027,-0.0304,-0.0321,-0.0326,-0.0394,-0.0363,-0.0362,-0.0373,-0.0457,-0.0466,-0.0475,-0.0372,-0.0372,-0.0372,0,0,0.001,-0.0005,-0.0002,-0.0017,-0.004,-0.0059,-0.006,-0.0092,-0.0111,-0.0138,-0.0174,-0.0218,-0.0262,-0.0306,-0.0332,-0.0347,-0.0385,-0.0354,-0.0363,-0.0444,-0.0453,-0.0461,-0.0468,-0.0477,-0.0359,-0.0359,-0.0359,0,0.0022,0.0024,-0.0003,-0.0004,-0.0012,-0.0048,-0.0044,-0.0071,-0.0109,-0.0136,-0.0141,-0.0237,-0.0268,-0.0333,-0.0338,-0.0348,-0.0378,-0.0361,-0.0445,-0.0454,-0.0463,-0.0469,-0.0479,-0.0358,-0.0359,-0.0359,-0.0359,0,0.0047,0.0044,0.0048,0.0033,0.0021,0.002,-0.0016,-0.0031,-0.0059,-0.0109,-0.0174,-0.0227,-0.0291,-0.0307,-0.0328,-0.0407,-0.0399,-0.043,-0.0447,-0.0471,-0.0474,-0.0486,-0.0357,-0.0357,-0.0358,-0.0358,0,0,0.0082,0.0069,0.0069,0.0075,0.0042,0.0042,0.0022,-0.0017,-0.0043,-0.0107,-0.0155,-0.0233,-0.0288,-0.0321,-0.0364,-0.0434,-0.0501,-0.0458,-0.0463,-0.0464,-0.0636,-0.0547,-0.055,-0.0559,-0.0562,-0.0565,-0.0596,0,0.0109,0.0125,0.0105,0.0121,0.0128,0.0094,0.0076,0.0028,-0.0026,-0.0084,-0.018,-0.0244,-0.0289,-0.0319,-0.0404,-0.0474,-0.0538,-0.0487,-0.0613,-0.0615,-0.0536,-0.0564,-0.0539,-0.056,-0.0607,-0.0609,-0.061,0,0.0138,0.0146,0.0168,0.0169,0.0169,0.0167,0.0138,0.0117,0.0011,-0.004,-0.0145,-0.0225,-0.033,-0.0365,-0.0525,-0.0493,-0.0568,-0.0625,-0.0629,-0.0569,-0.055,-0.0554,-0.0579,-0.0629,-0.0628,-0.0626,-0.0625,0,0.0183,0.0193,0.0217,0.0216,0.0203,0.0208,0.0201,0.012,0.0107,-0.002,-0.0047,-0.0218,-0.0259,-0.0417,-0.0526,-0.0543,-0.0684,-0.0721,-0.071,-0.0701,-0.0715,-0.0703,-0.0857,-0.0857,-0.0856,-0.0856,-0.0856,0,0.0221,0.0241,0.0244,0.0257,0.0285,0.0256,0.0258,0.0218,0.0157,0.0146,-0.0022,-0.0033,-0.0281,-0.0383,-0.052,-0.062,-0.0683,-0.0713,-0.0721,-0.0698,-0.0684,-0.0785,-0.0776,-0.0857,-0.0857,-0.0857,-0.0857,0,0.0261,0.026,0.0296,0.0303,0.0307,0.033,0.0337,0.034,0.0269,0.0263,0.0233,0.0098,-0.0011,-0.0226,-0.044,-0.0559,-0.07,-0.0724,-0.0634,-0.0632,-0.0662,-0.0652,-0.0728,-0.0726,-0.0724,-0.0722,-0.072,0,0.0282,0.0303,0.034,0.0371,0.0379,0.0406,0.0428,0.0392,0.0419,0.0381,0.0411,0.0294,0.0249,-0.0013,-0.0272,-0.0502,-0.0577,-0.0617,-0.066,-0.0657,-0.0659,-0.0652,-0.0644,-0.0656,-0.0654,-0.0653,-0.0652,0,0.0329,0.0342,0.0376,0.0438,0.0483,0.0535,0.0583,0.0627,0.0613,0.0622,0.0667,0.0627,0.0398,0.0178,-0.0141,-0.0305,-0.0588,-0.0586,-0.0661,-0.067,-0.0587,-0.0588,-0.0585,-0.0638,-0.0639,-0.064,-0.0641,-0.0642,0.0365,0.0405,0.0454,0.0518,0.0578,0.0671,0.0732,0.0803,0.0876,0.0924,0.0895,0.086,0.057,0.0204,-0.0085,-0.0406,-0.0411,-0.0551,-0.0558,-0.0567,-0.053,-0.0447,-0.0461,-0.0461,-0.0461,-0.0462,-0.0462,0,0.0418,0.0463,0.053,0.0618,0.0706,0.072,0.0842,0.0915,0.1039,0.1092,0.1122,0.0893,0.0639,0.0317,-0.013,-0.0399,-0.0483,-0.0487,-0.055,-0.056,-0.0569,-0.0537,-0.0468,-0.0469,-0.0469,-0.047,0,0,0.0448,0.0526,0.0566,0.0716,0.0783,0.0911,0.0993,0.1101,0.1176,0.1249,0.1238,0.1159,0.0765,0.0446,0.006,-0.0195,-0.0319,-0.0253,-0.0218,-0.0256,-0.0262,-0.0574,-0.0529,0,0,0,0,0]}],[{"header":{"parameterUnit":"m.s-1","parameterCategory":2,"la1":30.2991,"la2":30.254,"lo1":-89.0895,"lo2":-89.0444,"dy":0.0017,"dx":0.0017,"nx":28,"ny":28,"refTime":"2025-03-09T09:00:00:Z","depth":"4","parameterNumber":2,"parameterNumberName":"U-component_of_CURRENTS"},"data":[0,0,0,0,0,0,0,0,0,0,0,0,0,0,0,0,0,0,0,0,0,0,0,0,0,0,0,0,0,0,0,0,0,0,0,0,0,0,0,0,0,0,0,0,0,0,0,0,0,0,0,0,0,0,0,0,0,0,0.0997,0.0998,0,0.1098,0.1099,0.1099,0.1154,0.1154,0.1154,0.1155,0.1129,0.1128,0.1127,0,0,0,0,0,0,0,0,0,0,0,0,0,0.0852,0.0854,0.0996,0.0998,0.1,0.1098,0.1099,0.11,0.1153,0.1154,0.1155,0.1155,0.1129,0.1128,0.1127,0,0,0,0,0,0,0,0,0,0,0,0,0,0.0927,0.0855,0.0996,0.1041,0.1046,0.1097,0.1099,0.11,0.1153,0.1154,0.1155,0.1155,0.113,0.1128,0.1126,0.1103,0,0,0.1121,0.1121,0,0,0,0,0,0,0,0,0.0923,0.0932,0.1033,0.1038,0.1044,0.1117,0.1039,0.1096,0.1153,0.1109,0.1155,0.1156,0.1115,0.1115,0.1129,0.1101,0.11,0.1121,0.112,0.1119,0.1119,0,0,0,0,0,0,0,0.0917,0.0928,0.1033,0.1035,0.1042,0.1057,0.1068,0.105,0.1101,0.1113,0.1118,0.1135,0.1117,0.113,0.1128,0.11,0.1121,0.112,0.1119,0.1118,0.1127,0.1128,0,0,0,0,0,0,0.0912,0.0923,0.103,0.1036,0.0988,0.106,0.1072,0.109,0.1105,0.111,0.1134,0.1137,0.1133,0.113,0.1127,0.1162,0.1119,0.1118,0.1117,0.1126,0.1128,0.1129,0,0,0,0,0,0,0.0908,0.092,0.1026,0.0984,0.1,0.1062,0.1082,0.1092,0.1132,0.1123,0.1125,0.1167,0.1133,0.113,0.1144,0.1158,0.1117,0.1116,0.1125,0.1127,0.1128,0.119,0,0,0,0,0,0,0.0904,0.0918,0.0939,0.0984,0.1002,0.1073,0.1082,0.1093,0.1141,0.1147,0.1151,0.1149,0.1133,0.1147,0.1143,0.1155,0.1114,0.1123,0.1125,0.1128,0.1186,0.1193,0.12,0,0,0,0,0,0.0898,0.0924,0.0939,0.0953,0.1025,0.1074,0.1085,0.1128,0.1142,0.1165,0.1176,0.115,0.1158,0.1147,0.1141,0.1154,0.1122,0.1125,0.1127,0.1183,0.1192,0.1199,0,0,0,0,0,0,0.0877,0.0934,0.0951,0.0995,0.1038,0.1085,0.1119,0.1141,0.117,0.1179,0.1165,0.1163,0.1181,0.1162,0.1149,0.1165,0.1135,0.1137,0.1179,0.1188,0.1194,0.1186,0.1113,0,0,0,0,0,0.088,0.0912,0.0965,0.1001,0.1028,0.1075,0.1105,0.1134,0.1163,0.118,0.118,0.1181,0.1184,0.1184,0.1179,0.1184,0.1184,0.1189,0.1196,0.1202,0.1193,0.1226,0.1235,0.1138,0.1138,0.1138,0,0,0.0883,0.0918,0.0938,0.0999,0.1039,0.1071,0.1095,0.115,0.1171,0.1166,0.1195,0.1203,0.1192,0.1207,0.1212,0.1195,0.1235,0.1205,0.121,0.1198,0.123,0.124,0.1248,0.114,0.114,0.1139,0,0,0.0894,0.0938,0.0967,0.0999,0.1063,0.109,0.111,0.1165,0.1191,0.122,0.1226,0.1247,0.1244,0.1246,0.1243,0.128,0.1272,0.1285,0.1309,0.1342,0.135,0.1357,0.139,0.1399,0.1286,0.1286,0.1287,0,0.0899,0.0936,0.0983,0.1012,0.1042,0.1097,0.1127,0.1158,0.1207,0.1225,0.1234,0.1265,0.1257,0.1276,0.1298,0.1292,0.1318,0.1279,0.1351,0.1358,0.1364,0.1395,0.1405,0.129,0.1289,0.1289,0.1289,0,0.0919,0.0955,0.0979,0.1027,0.1062,0.1104,0.1148,0.1181,0.1216,0.1243,0.1286,0.1298,0.1317,0.1323,0.1321,0.1364,0.1372,0.1359,0.133,0.1377,0.1408,0.1417,0.1294,0.1293,0.1292,0.1291,0,0,0.0914,0.0981,0.099,0.1011,0.1076,0.1105,0.1141,0.1191,0.1221,0.1266,0.1306,0.1328,0.1359,0.1359,0.1372,0.1398,0.1471,0.1406,0.1407,0.1438,0.1563,0.1489,0.1492,0.1487,0.1489,0.149,0.1574,0,0.0921,0.0966,0.0999,0.104,0.107,0.1117,0.1147,0.1194,0.1237,0.1285,0.1321,0.1362,0.1367,0.1397,0.1428,0.1462,0.1495,0.145,0.1511,0.1513,0.144,0.1499,0.1494,0.158,0.1582,0.1584,0.1585,0,0.0926,0.0957,0.0997,0.105,0.107,0.1099,0.1159,0.1196,0.1265,0.1306,0.1361,0.1395,0.1454,0.1449,0.1533,0.1516,0.1545,0.1562,0.1566,0.1474,0.1454,0.1518,0.1601,0.1599,0.1598,0.1597,0.1596,0,0.0892,0.0953,0.0984,0.1001,0.1069,0.1096,0.114,0.1206,0.1248,0.1331,0.1373,0.1445,0.1503,0.1546,0.1592,0.1581,0.1676,0.166,0.1617,0.1612,0.1625,0.1616,0.1709,0.1709,0.1709,0.1709,0.1709,0,0.0876,0.0901,0.0974,0.0988,0.1031,0.1087,0.1141,0.1192,0.1277,0.1334,0.1395,0.145,0.1536,0.1595,0.1619,0.1651,0.1704,0.1627,0.1629,0.1652,0.1645,0.1633,0.1623,0.1712,0.1711,0.1711,0.171,0,0.0827,0.0877,0.0914,0.0989,0.1017,0.105,0.1147,0.1183,0.1272,0.1349,0.1383,0.1492,0.1582,0.1637,0.1719,0.1686,0.1711,0.1702,0.1735,0.1737,0.1621,0.1614,0.167,0.1668,0.1667,0.1665,0.1664,0,0.0803,0.0819,0.0904,0.0933,0.097,0.1032,0.1076,0.1176,0.1222,0.1361,0.1396,0.1516,0.1579,0.1638,0.1698,0.1739,0.1719,0.171,0.1649,0.1621,0.1618,0.1613,0.1608,0.1662,0.1661,0.1661,0.1661,0,0.0752,0.0793,0.0825,0.0889,0.0939,0.0987,0.1064,0.1096,0.1215,0.1298,0.1392,0.1444,0.1549,0.1615,0.1657,0.1674,0.17,0.1693,0.1695,0.1638,0.1612,0.1609,0.1606,0.1655,0.1656,0.1656,0.1657,0,0.0717,0.073,0.0787,0.0835,0.0897,0.094,0.0982,0.1056,0.1122,0.1279,0.1313,0.1438,0.1549,0.1584,0.1617,0.1636,0.1619,0.1554,0.1563,0.157,0.1496,0.1445,0.1446,0,0,0,0,0,0.0682,0.0697,0.0733,0.079,0.0847,0.0893,0.0975,0.102,0.1135,0.118,0.125,0.1339,0.1422,0.1485,0.149,0.1572,0.1613,0.1567,0.154,0.1624,0.163,0.155,0,0,0,0,0,0,0.0659,0.0692,0.0712,0.0744,0.0779,0.084,0.0894,0.0967,0.1002,0.1123,0.1182,0.1268,0.1371,0.1423,0.1471,0.1489,0.1446,0.1647,0.1644,0.162,0.1626,0.1631,0.1551,0,0,0,0,0]},{"header":{"parameterUnit":"m.s-1","parameterCategory":2,"la1":30.2991,"la2":30.254,"lo1":-89.0895,"lo2":-89.0444,"dy":0.0017,"dx":0.0017,"nx":28,"ny":28,"refTime":"2025-03-09T09:00:00:Z","depth":"4","parameterNumber":3,"parameterNumberName":"V-component_of_CURRENTS"},"data":[0,0,0,0,0,0,0,0,0,0,0,0,0,0,0,0,0,0,0,0,0,0,0,0,0,0,0,0,0,0,0,0,0,0,0,0,0,0,0,0,0,0,0,0,0,0,0,0,0,0,0,0,0,0,0,0,0,0,0.005,0.0049,0,-0.0032,-0.0033,-0.0034,-0.0077,-0.0077,-0.0077,-0.0077,-0.0048,-0.0047,-0.0047,0,0,0,0,0,0,0,0,0,0,0,0,0,0.0151,0.0149,0.005,0.0049,0.0048,-0.0032,-0.0033,-0.0034,-0.0077,-0.0077,-0.0077,-0.0077,-0.0049,-0.0048,-0.0046,0,0,0,0,0,0,0,0,0,0,0,0,0,0.0093,0.0149,0.005,0.0016,0.0012,-0.0032,-0.0033,-0.0035,-0.0077,-0.0077,-0.0077,-0.0077,-0.0049,-0.0048,-0.0046,-0.0033,0,0,-0.0042,-0.0042,0,0,0,0,0,0,0,0,0.0096,0.0089,0.0022,0.0018,0.0014,-0.0046,0.0013,-0.0029,-0.0077,-0.0042,-0.0077,-0.0078,-0.0038,-0.0037,-0.0052,-0.0031,-0.003,-0.0042,-0.0041,-0.0041,-0.004,0,0,0,0,0,0,0,0.01,0.0093,0.0019,0.0021,0.0016,-0.0002,-0.001,0.0004,-0.0034,-0.0045,-0.0048,-0.0059,-0.0039,-0.0053,-0.0051,-0.003,-0.0042,-0.0041,-0.004,-0.0039,-0.0004,-0.0004,0,0,0,0,0,0,0.0109,0.0096,0.0021,0.0016,0.0054,-0.0004,-0.0013,-0.0025,-0.0037,-0.004,-0.0059,-0.0061,-0.0056,-0.0053,-0.005,-0.0014,-0.0041,-0.0039,-0.0038,-0.0004,-0.0004,-0.0004,0,0,0,0,0,0,0.0112,0.0103,0.0024,0.0054,0.0042,-0.0005,-0.0019,-0.0027,-0.0045,-0.0049,-0.005,-0.007,-0.0056,-0.0052,-0.0052,-0.0013,-0.0039,-0.0037,-0.0004,-0.0004,-0.0004,0.0047,0,0,0,0,0,0,0.0115,0.0104,0.0102,0.0054,0.0041,0.0003,-0.0019,-0.0028,-0.0052,-0.0055,-0.0058,-0.0056,-0.0056,-0.0055,-0.0051,-0.0012,-0.0036,-0.0004,-0.0004,-0.0004,0.0045,0.0049,0.0052,0,0,0,0,0,0.0119,0.0114,0.0102,0.0093,0.0037,0.0003,-0.0004,-0.0038,-0.0052,-0.0056,-0.0071,-0.0056,-0.005,-0.0054,-0.005,-0.0009,-0.0005,-0.0004,-0.0004,0.0043,0.0048,0.0052,0,0,0,0,0,0,0.0153,0.0107,0.0094,0.0074,0.0045,-0.0004,-0.0014,-0.0037,-0.0055,-0.0056,-0.0062,-0.006,-0.0045,-0.0044,-0.0048,-0.0002,-0.0021,-0.002,0.0013,0.0018,0.0021,0.0063,-0.0035,0,0,0,0,0,0.016,0.0148,0.0102,0.0089,0.0074,0.0031,0.0013,-0.0009,-0.0034,-0.0044,-0.0048,-0.0049,-0.004,-0.0027,-0.0027,0.0001,-0.0009,0.0029,0.0032,0.0036,0.007,0.0063,0.007,-0.0003,-0.0003,-0.0003,0,0,0.017,0.0144,0.0137,0.0097,0.0069,0.0064,0.002,-0.0005,0.0004,-0.0033,-0.0023,-0.004,-0.0037,-0.0014,-0.0004,-0.0004,0.0043,0.0036,0.0039,0.0072,0.0065,0.0072,0.0079,-0.0003,-0.0003,-0.0003,0,0,0.0188,0.016,0.0158,0.014,0.0103,0.0082,0.0077,0.0032,0.0026,0.0023,0.0002,0.0006,0.001,0.0028,0.0037,0.0063,0.0052,0.0058,0.0129,0.0121,0.0128,0.0134,0.0101,0.0104,0.0073,0.0073,0.0073,0,0.0201,0.0195,0.0153,0.0151,0.0147,0.0097,0.0105,0.0093,0.0058,0.0071,0.0037,0.0047,0.0043,0.0094,0.0098,0.0079,0.0054,0.0115,0.0128,0.0134,0.0139,0.0105,0.0107,0.0075,0.0075,0.0075,0.0075,0,0.0218,0.022,0.0217,0.0207,0.0198,0.0193,0.0174,0.0174,0.0156,0.0149,0.017,0.0144,0.016,0.0154,0.0139,0.0185,0.0144,0.0122,0.0124,0.015,0.0111,0.0112,0.0079,0.0078,0.0077,0.0077,0,0,0.0228,0.023,0.0231,0.0248,0.023,0.0226,0.0253,0.0267,0.0297,0.0269,0.0306,0.0311,0.0288,0.0297,0.0271,0.0273,0.027,0.0221,0.0219,0.02,0.0229,0.0146,0.0139,0.024,0.0242,0.0243,0.0175,0,0.0255,0.028,0.0273,0.0312,0.0324,0.0313,0.0346,0.0359,0.0359,0.038,0.0371,0.0385,0.0346,0.0344,0.0344,0.0281,0.0281,0.0289,0.0198,0.0196,0.0129,0.0142,0.0247,0.0176,0.0177,0.0177,0.0177,0,0.0271,0.0291,0.0332,0.0379,0.0384,0.0406,0.0456,0.0477,0.0506,0.0508,0.0525,0.0495,0.0504,0.045,0.0398,0.0396,0.0335,0.0283,0.0279,0.0198,0.0118,0.015,0.018,0.018,0.018,0.0179,0.0179,0,0.0299,0.0336,0.0378,0.0389,0.0428,0.046,0.0483,0.0519,0.0551,0.0585,0.0596,0.0596,0.0572,0.0518,0.0403,0.04,0.0317,0.0295,0.0171,0.0163,0.0236,0.0231,0.0281,0.0281,0.0281,0.0281,0.0281,0,0.0327,0.0362,0.0397,0.0421,0.0484,0.0497,0.0565,0.0593,0.0632,0.0669,0.0658,0.0662,0.0585,0.0516,0.0429,0.029,0.0335,0.0197,0.0151,0.0251,0.0249,0.0235,0.023,0.0279,0.0279,0.028,0.028,0,0.0344,0.0366,0.0419,0.0474,0.0496,0.0538,0.0603,0.0653,0.0681,0.0723,0.0731,0.0703,0.0601,0.0502,0.0386,0.0303,0.0193,0.0137,0.0236,0.0194,0.0039,0.0038,0.0009,0.0006,0.0003,0.0001,-0.0001,0,0.0355,0.0382,0.0451,0.0486,0.0512,0.0575,0.0623,0.0674,0.0715,0.0736,0.0749,0.0672,0.0629,0.0414,0.0304,0.0129,0.0103,0.005,0.0078,0.0059,0.0017,0.0021,0.0023,-0.0005,-0.0006,-0.0007,-0.0008,0,0.0376,0.0397,0.044,0.0509,0.0565,0.0631,0.0691,0.0723,0.0769,0.0791,0.0756,0.0656,0.0528,0.038,0.023,0.0112,0.0091,0.0022,0.0027,0.0053,0.0041,0.0003,0.0009,-0.0017,-0.0016,-0.0015,-0.0014,0,0.0385,0.0415,0.0468,0.0528,0.0599,0.0661,0.0699,0.0731,0.0767,0.0779,0.0754,0.064,0.0578,0.0367,0.0234,0.0097,0.0072,0.0048,0.0052,0.0061,0.0089,0.0082,0.0012,0,0,0,0,0,0.0389,0.0423,0.0483,0.0552,0.0621,0.0664,0.0734,0.0764,0.0796,0.077,0.0765,0.0645,0.0438,0.0358,0.0206,0.0176,0.0044,-0.0007,0.0018,-0.0069,-0.0059,-0.0043,0,0,0,0,0,0,0.0392,0.0446,0.0479,0.0556,0.0605,0.0687,0.0734,0.0759,0.0743,0.0748,0.0642,0.0597,0.0397,0.0519,0.0199,0.0158,0.0151,-0.0098,-0.0102,-0.0076,-0.0066,-0.0057,-0.0037,0,0,0,0,0]}]]